Wetbulb
51.79 51.79 51.70 51.59 50.76 50.27 49.72 49.21 48.90 49.27 48.63 48.93 49.11 48.81 49.00 49.41 49.40 45.60 41.90 44.06 43.37 38.43 39.54 43.42 45.76 40.86 40.66 40.36 39.25 43.24 44.53 46.15 45.64 40.87 40.29 39.30 38.65 40.54 39.70 41.33 40.75 40.00 37.38 37.72 39.06 37.51 37.72 52.88 56.20 48.41 49.70 57.38 58.40 57.13
51.88 51.80 51.42 51.52 51.43 50.58 49.71 48.89 48.74 48.79 48.54 48.95 48.99 48.94 48.55 48.94 49.03 47.88 39.45 44.56 45.90 42.06 41.25 44.89 47.72 48.35 45.93 44.72 42.46 41.99 44.58 44.72 48.63 45.46 44.04 44.32 41.21 43.20 40.02 37.85 46.42 41.91 42.13 40.51 41.92 41.65 51.19 59.48 58.52 56.89 56.87 57.50 58.51 57.14
51.79 51.68 51.51 51.40 51.28 50.87 49.82 48.99 48.51 48.26 48.67 49.10 48.86 48.71 48.35 48.40 48.57 47.21 39.67 40.83 41.92 40.48 41.35 41.50 43.17 47.60 45.86 45.11 45.00 40.85 43.93 47.06 46.09 49.90 47.21 44.99 43.49 44.50 40.93 42.92 44.24 47.73 50.82 46.21 46.52 54.37 57.83 59.83 60.88 62.14 62.58 61.80 62.64 62.65
51.50 51.48 51.54 51.43 51.28 50.92 50.04 49.08 48.43 48.40 48.85 49.21 48.80 48.58 48.30 48.13 48.32 48.06 39.66 40.22 40.22 40.53 36.54 40.77 50.01 47.24 50.55 46.15 45.21 44.15 44.18 46.67 47.55 48.18 45.11 42.95 41.61 44.38 40.98 44.69 44.50 47.95 50.51 49.15 49.76 52.94 55.97 57.22 58.03 58.89 62.68 62.92 63.55 63.17
51.42 51.48 51.28 51.19 51.19 50.80 50.00 49.21 48.48 48.36 48.55 48.79 48.39 48.26 48.18 47.96 48.47 46.33 42.15 41.63 43.05 41.06 37.10 39.00 44.85 47.85 49.06 48.30 46.26 45.90 42.54 43.07 44.40 43.66 41.83 41.01 42.41 43.84 44.84 43.56 44.97 50.11 48.98 47.96 47.14 53.37 54.05 54.80 57.53 60.65 62.60 61.53 62.45 62.89
50.74 50.82 50.73 50.93 50.95 50.35 49.27 49.09 48.34 48.27 48.25 48.34 48.08 47.85 47.65 47.69 47.99 40.67 41.45 44.86 45.50 43.91 40.76 36.76 44.59 46.01 46.14 47.21 46.24 44.83 42.48 42.83 43.53 41.75 41.17 43.27 45.47 44.75 40.54 40.38 50.38 52.45 53.79 54.31 51.55 54.51 56.99 56.01 57.76 62.25 61.88 60.73 62.36 63.89
50.19 50.32 50.44 50.51 50.34 49.97 49.68 49.10 48.80 48.32 48.49 48.17 48.19 47.79 47.81 48.02 42.57 37.62 40.67 45.29 47.62 44.43 41.94 38.37 39.91 46.27 48.19 46.34 44.63 43.37 42.08 41.74 42.67 40.29 39.02 40.43 42.07 44.16 41.33 39.06 49.71 52.74 53.25 53.68 53.81 54.83 54.37 57.48 57.55 58.44 58.84 59.96 61.14 61.27
49.49 49.69 49.83 50.29 49.85 49.49 49.37 48.93 48.56 48.61 48.56 48.10 48.22 48.01 47.95 47.95 45.84 40.72 43.59 47.29 46.25 42.63 42.63 37.75 39.81 44.65 49.28 42.48 41.25 42.56 40.40 40.90 41.17 41.69 41.40 39.79 41.35 42.74 39.41 44.02 46.53 52.03 51.90 53.37 54.73 54.90 54.30 57.74 59.41 59.68 60.32 59.41 58.46 58.56
49.54 49.44 49.52 49.96 49.53 49.09 49.15 48.82 48.44 48.57 48.57 48.29 47.78 48.01 43.35 41.50 40.48 44.56 53.46 51.18 45.60 44.63 39.41 39.72 36.86 37.40 47.78 44.89 46.10 46.14 43.79 38.50 43.06 40.38 39.95 41.51 38.79 37.74 42.25 44.85 44.45 51.63 50.88 49.44 50.50 51.76 54.81 55.99 55.42 55.87 57.38 57.43 57.74 58.22
49.61 49.61 49.32 49.56 49.26 48.97 49.04 48.71 48.50 48.46 48.13 47.99 42.74 39.21 38.73 44.27 53.84 51.66 45.51 43.34 43.00 42.98 41.42 37.89 41.18 40.48 44.31 44.11 44.18 43.37 43.45 43.25 38.47 41.46 42.63 39.71 37.70 42.21 46.32 47.43 46.43 50.17 49.88 50.14 48.67 48.26 48.96 49.39 51.60 54.03 53.51 56.31 56.80 57.10
49.84 49.73 49.49 49.22 49.19 48.99 48.67 48.71 48.52 48.01 46.40 38.88 36.78 41.86 46.75 52.28 44.87 42.57 39.48 38.58 39.90 38.80 39.93 39.58 38.73 38.35 47.02 42.09 41.77 43.98 41.22 41.90 37.12 39.88 40.25 38.72 37.82 45.89 48.83 49.32 49.84 50.39 51.33 51.12 50.96 50.68 50.42 49.91 50.18 50.51 52.30 54.60 55.98 55.51
49.51 49.64 49.42 49.13 49.07 48.83 48.61 48.71 48.45 42.66 39.01 40.19 39.56 43.05 41.37 42.19 40.31 37.55 36.60 39.31 38.77 37.66 40.88 39.16 39.70 44.56 46.74 50.80 45.65 46.20 43.65 44.12 37.49 44.90 43.48 38.47 42.87 46.42 48.11 48.91 49.22 49.43 50.78 51.11 52.27 51.67 51.87 52.42 52.46 52.11 53.68 53.69 56.20 58.07
48.86 49.31 49.02 49.04 49.07 48.49 48.62 48.61 48.68 47.54 44.35 39.56 40.50 38.64 40.25 38.62 33.89 34.67 33.66 36.28 36.09 40.48 44.92 43.01 44.65 46.93 46.02 48.81 42.52 41.17 38.86 38.23 47.71 43.30 40.32 40.98 45.07 48.38 48.42 49.37 50.35 50.81 50.37 50.30 50.64 51.49 51.90 52.21 53.19 52.97 52.85 54.81 55.06 57.38
48.08 48.84 48.97 48.68 48.73 48.68 48.72 48.79 48.48 45.74 39.11 38.27 39.10 29.09 34.16 32.21 35.95 37.00 36.32 39.36 43.08 44.48 43.14 43.31 42.73 42.33 43.15 41.82 43.64 39.36 42.54 43.22 39.69 36.98 38.82 43.67 48.19 49.46 49.59 50.52 49.67 48.28 48.77 48.88 49.47 50.31 50.76 51.14 51.58 53.06 53.72 54.43 54.26 54.61
48.48 48.96 48.73 48.41 48.63 48.85 48.88 48.82 47.41 41.66 39.29 40.20 40.51 27.60 35.15 38.79 39.12 43.61 44.49 43.52 45.57 46.44 43.60 42.84 42.51 42.14 40.10 40.49 41.11 40.82 40.41 38.64 39.19 37.41 41.20 44.74 46.47 47.24 47.53 48.52 48.06 48.18 48.34 47.95 48.52 49.14 50.07 51.01 50.76 51.05 52.12 53.32 53.84 54.10
48.48 48.36 46.08 48.45 49.06 49.01 48.56 47.00 42.88 40.84 41.70 40.51 39.79 37.44 39.96 39.13 40.59 43.38 44.71 42.77 46.03 44.79 46.23 43.78 39.95 38.65 38.57 39.02 39.06 39.32 39.28 36.71 40.52 43.87 46.97 45.97 45.13 45.70 45.75 46.90 47.58 48.35 47.96 47.51 48.14 49.26 50.63 50.01 49.92 50.03 51.74 53.50 53.33 54.23
46.57 42.85 48.28 48.55 48.62 48.49 47.35 41.48 39.78 39.51 41.19 40.20 37.96 42.33 41.23 43.14 44.24 44.64 45.30 43.94 46.10 44.06 40.02 40.94 37.69 37.98 41.67 38.53 38.61 40.79 38.44 42.75 44.23 44.61 45.23 44.50 44.36 44.71 45.93 46.90 47.71 48.90 48.60 47.75 49.11 51.10 50.89 53.47 53.69 51.99 49.50 49.44 50.68 52.82
44.76 47.35 48.69 48.60 46.59 44.49 41.75 40.58 41.25 40.73 37.37 38.03 35.88 39.90 42.38 45.17 43.48 43.24 44.01 45.32 45.84 44.36 41.66 39.98 41.48 37.53 36.71 38.61 40.28 43.48 45.23 46.44 45.29 45.31 45.81 46.38 46.70 48.23 49.59 49.81 50.85 51.33 50.82 48.56 49.89 51.26 52.04 53.46 52.14 52.19 49.83 49.27 49.13 51.35
46.29 47.19 48.88 48.02 44.97 41.46 39.39 40.43 41.67 37.52 38.32 39.83 42.26 43.48 44.42 45.34 44.90 44.67 45.08 44.27 44.51 43.73 41.92 40.67 38.80 36.80 39.53 41.56 41.73 43.89 44.46 44.49 43.90 44.69 46.15 47.96 49.49 49.14 50.95 51.83 52.96 53.16 52.47 52.90 53.58 53.47 53.45 53.40 52.75 53.84 53.62 53.46 53.21 53.09
48.42 48.45 48.27 47.87 45.36 41.97 41.29 39.33 43.78 39.48 38.89 41.68 43.88 42.42 42.17 42.61 46.23 46.15 43.31 43.09 41.45 41.08 39.05 38.33 40.48 41.35 42.26 43.93 45.09 44.88 45.58 46.32 45.65 44.98 45.85 47.66 50.23 51.19 51.40 52.37 52.00 52.67 52.78 52.82 52.58 50.41 52.94 52.67 53.05 52.67 52.29 52.00 51.93 51.44
44.45 44.29 46.05 43.79 41.76 40.75 40.59 40.92 39.75 41.06 41.66 44.12 44.19 43.20 41.43 43.72 43.00 41.18 39.97 42.30 39.52 38.14 37.60 41.81 43.90 45.32 45.53 46.18 47.15 47.31 46.52 47.35 47.48 47.68 47.28 47.48 49.94 50.94 50.74 51.06 51.92 51.71 51.28 51.10 51.08 51.42 50.73 51.37 52.29 53.01 52.16 51.13 51.13 50.89
43.13 47.50 42.03 42.46 40.91 44.43 42.39 45.21 43.32 43.58 42.19 43.86 44.02 45.05 42.88 41.19 37.84 37.56 40.00 37.80 37.88 40.02 40.95 40.71 41.71 43.17 43.84 45.41 46.59 48.43 49.41 49.48 49.46 49.61 47.53 48.26 49.18 49.56 50.38 50.54 50.61 50.56 50.92 51.12 51.28 51.26 51.60 51.77 52.10 52.07 51.73 51.38 51.01 51.98
46.16 44.41 43.16 45.22 40.85 35.45 35.71 43.48 41.23 43.06 39.06 40.32 41.41 39.76 37.20 36.78 39.74 40.00 36.45 40.28 38.74 41.11 41.29 41.56 42.61 47.79 46.24 48.39 48.74 49.31 50.09 49.65 49.79 49.96 50.01 49.97 50.56 51.76 50.96 50.16 50.62 50.20 50.48 50.56 51.26 50.81 50.64 47.97 49.40 50.60 50.28 49.96 49.21 48.48
46.85 41.31 40.16 39.33 37.10 30.79 41.17 38.26 40.41 39.39 38.17 36.33 35.40 32.65 37.81 37.97 40.87 38.68 36.49 39.18 42.09 45.25 45.78 46.65 47.41 47.15 48.38 48.48 47.89 48.33 49.48 50.68 50.37 50.98 51.14 49.08 47.19 47.21 50.24 50.57 50.16 51.03 50.77 50.38 49.96 49.90 49.82 49.57 47.75 50.03 49.55 49.32 49.23 48.94
35.69 32.05 35.32 26.51 37.59 38.47 38.17 38.05 36.12 34.36 31.96 36.29 34.62 36.91 37.98 39.77 36.23 35.23 35.24 39.67 43.36 44.70 46.57 48.24 48.09 48.02 47.01 47.44 48.35 48.96 50.77 50.87 50.18 49.97 51.36 50.25 49.26 49.32 49.10 48.49 48.16 48.07 48.04 47.31 48.29 49.52 48.24 48.76 48.62 48.74 49.01 48.37 47.25 47.42
31.25 36.11 32.02 36.70 36.22 36.29 35.14 31.96 31.27 33.47 36.27 36.94 37.75 40.44 40.10 38.10 35.53 33.96 38.79 42.52 44.24 45.41 47.79 47.68 47.68 47.39 48.00 48.76 48.42 48.92 50.14 51.91 52.18 50.66 51.59 52.78 52.22 50.69 48.39 46.78 45.88 47.40 50.42 51.10 50.03 49.88 49.97 50.10 50.27 50.08 49.99 49.80 46.21 49.10
32.80 34.70 40.13 41.94 39.64 38.36 37.30 38.86 39.87 38.15 37.28 36.95 39.38 39.67 39.18 35.68 34.67 39.72 44.14 46.52 46.95 49.11 50.34 50.37 50.11 49.34 49.06 49.44 49.75 50.81 51.06 51.51 51.08 50.91 52.24 52.42 52.48 52.64 51.22 48.90 47.96 49.29 53.40 54.09 52.68 52.37 50.04 48.68 47.59 48.22 48.17 48.95 50.20 49.96
37.57 37.22 33.94 38.50 37.03 38.89 38.27 38.81 38.37 37.96 39.77 42.57 42.81 39.77 39.18 38.68 39.29 44.50 46.79 49.20 50.46 51.02 51.49 51.87 52.41 52.08 50.54 49.96 50.20 50.65 50.90 51.15 51.92 52.14 51.73 50.84 51.14 50.45 48.55 47.95 45.43 42.77 45.90 48.00 49.03 48.88 49.22 51.07 50.04 50.76 50.40 48.89 49.28 49.15
36.45 40.20 40.51 38.74 40.19 40.38 40.85 40.76 42.08 43.76 44.95 44.57 42.72 41.16 42.33 45.66 47.97 48.29 49.60 50.59 51.09 50.73 49.90 49.79 49.92 50.91 51.41 51.46 50.92 51.01 52.01 50.09 47.59 45.83 44.02 41.38 42.26 44.08 45.76 46.35 46.11 46.05 44.92 44.79 41.22 44.38 47.46 47.32 48.83 48.65 48.40 47.62 47.86 47.71
41.78 42.84 40.59 41.79 40.50 39.80 43.60 45.81 45.14 46.83 47.45 47.11 46.23 46.43 46.62 47.20 49.04 51.46 50.13 50.01 49.69 49.61 50.52 50.41 50.16 49.59 49.09 48.58 50.01 49.76 47.94 48.53 49.88 46.91 42.81 42.16 43.61 45.54 46.32 46.78 47.31 47.59 46.97 46.63 45.71 44.53 42.79 45.45 44.31 47.17 47.48 47.12 46.63 47.95
45.85 43.72 42.07 43.02 42.22 44.43 46.34 47.50 47.81 48.55 48.31 47.26 47.80 46.14 45.60 47.11 48.29 49.62 49.29 49.17 49.45 49.24 48.58 49.28 50.11 50.70 49.03 48.17 48.38 48.65 45.93 47.98 48.66 49.31 49.68 48.57 48.86 48.60 48.49 49.13 50.43 50.70 48.75 49.15 48.07 49.41 48.87 48.73 48.63 49.98 49.86 46.70 45.69 44.31
45.33 43.78 42.13 40.39 41.23 44.95 46.53 44.36 42.92 44.12 45.55 44.91 44.51 46.38 46.46 46.10 43.97 47.00 49.67 50.73 49.49 48.86 49.02 48.63 47.49 47.07 47.59 48.22 48.56 47.28 44.62 46.25 46.74 47.33 48.02 47.95 47.87 48.53 48.73 48.57 49.20 49.61 49.27 49.34 49.31 48.34 48.04 47.34 46.56 46.15 46.09 46.45 45.19 44.42
45.98 46.38 46.07 44.64 43.30 43.67 45.05 44.57 42.61 41.58 42.71 42.54 43.16 44.61 45.24 44.56 42.49 46.37 50.11 52.80 51.24 50.86 49.93 49.64 49.47 49.87 48.74 48.22 47.03 45.28 43.16 43.26 40.79 38.69 39.00 39.84 40.96 43.86 46.63 47.58 48.32 48.79 48.28 47.73 47.11 47.44 46.84 46.47 45.65 45.38 44.89 44.58 44.23 43.96
MSLP
1024.56 1024.81 1025.05 1025.22 1025.32 1025.31 1025.28 1025.19 1025.02 1024.78 1024.66 1024.46 1024.15 1023.75 1023.34 1022.89 1022.33 1021.95 1021.15 1020.53 1020.43 1020.16 1018.13 1016.88 1016.42 1016.28 1015.72 1015.36 1015.06 1014.12 1013.49 1013.05 1013.08 1013.70 1014.06 1013.88 1013.17 1012.12 1011.63 1011.09 1010.92 1011.52 1012.02 1012.45 1012.62 1012.21 1010.51 1008.88 1008.50 1009.01 1009.31 1009.28 1009.99 1010.79
1024.06 1024.28 1024.57 1024.76 1024.90 1024.97 1024.98 1024.98 1024.90 1024.76 1024.61 1024.41 1024.16 1023.80 1023.42 1023.09 1022.70 1022.19 1021.90 1020.63 1020.32 1020.31 1018.17 1016.60 1015.78 1015.32 1015.43 1014.99 1015.06 1014.90 1015.16 1015.04 1014.91 1014.99 1015.00 1014.46 1013.77 1012.87 1012.63 1012.33 1011.35 1011.62 1011.32 1011.35 1011.74 1011.58 1010.84 1009.68 1009.69 1009.66 1009.57 1009.82 1010.44 1010.81
1023.47 1023.74 1024.01 1024.25 1024.41 1024.56 1024.64 1024.69 1024.68 1024.63 1024.48 1024.30 1024.07 1023.80 1023.44 1023.14 1022.87 1022.75 1022.56 1021.78 1020.84 1020.23 1018.17 1016.58 1014.91 1013.71 1014.01 1014.30 1014.30 1015.02 1015.32 1015.04 1015.26 1015.23 1015.53 1015.19 1014.63 1013.82 1013.68 1013.17 1012.54 1011.45 1011.20 1011.60 1011.69 1012.27 1011.64 1010.91 1010.37 1010.26 1010.03 1010.15 1010.03 1010.13
1022.84 1023.15 1023.45 1023.67 1023.84 1024.07 1024.25 1024.37 1024.40 1024.39 1024.30 1024.16 1023.93 1023.71 1023.40 1023.09 1022.84 1022.62 1022.85 1022.01 1021.85 1021.08 1019.90 1016.70 1014.57 1014.16 1013.75 1013.53 1013.87 1014.25 1014.72 1015.02 1015.29 1015.51 1015.75 1015.73 1015.40 1014.30 1013.99 1013.42 1013.29 1012.30 1011.80 1012.38 1012.73 1012.52 1012.31 1011.67 1011.52 1011.48 1010.76 1010.86 1010.73 1011.10
1022.23 1022.53 1022.83 1023.07 1023.32 1023.60 1023.86 1024.01 1024.10 1024.12 1024.05 1023.93 1023.77 1023.56 1023.31 1022.96 1022.60 1022.14 1022.01 1021.52 1021.26 1021.47 1020.40 1017.93 1015.78 1013.87 1013.60 1013.58 1013.87 1014.18 1014.71 1015.46 1016.11 1016.37 1016.47 1016.06 1015.08 1014.71 1014.02 1013.76 1013.37 1012.72 1012.52 1012.68 1013.20 1012.73 1012.63 1012.65 1012.21 1011.73 1011.51 1011.77 1011.86 1011.97
1021.69 1022.00 1022.30 1022.57 1022.85 1023.18 1023.46 1023.64 1023.77 1023.81 1023.74 1023.66 1023.55 1023.39 1023.17 1022.89 1022.54 1022.17 1021.64 1020.88 1020.79 1021.12 1020.51 1019.06 1016.09 1014.51 1013.86 1013.85 1014.04 1014.49 1015.12 1015.83 1016.31 1016.66 1016.45 1015.72 1014.77 1014.55 1014.67 1014.37 1013.44 1012.66 1012.27 1012.33 1012.53 1012.34 1012.48 1012.56 1012.53 1012.21 1011.99 1012.17 1012.46 1012.55
1021.27 1021.57 1021.86 1022.14 1022.46 1022.80 1023.06 1023.29 1023.46 1023.51 1023.46 1023.37 1023.22 1023.06 1022.89 1022.73 1022.93 1022.64 1021.78 1020.72 1020.38 1021.02 1020.55 1019.42 1017.29 1014.75 1014.04 1014.21 1014.63 1015.05 1015.25 1015.87 1016.46 1016.55 1016.37 1016.04 1015.39 1014.84 1014.72 1014.14 1013.08 1012.32 1011.93 1012.02 1011.96 1012.06 1012.72 1012.92 1012.81 1012.36 1012.04 1012.34 1013.19 1012.97
1020.77 1021.15 1021.48 1021.75 1022.09 1022.41 1022.68 1022.95 1023.17 1023.22 1023.20 1023.07 1022.88 1022.63 1022.32 1022.05 1021.97 1021.67 1020.00 1019.59 1020.48 1020.73 1020.47 1019.75 1017.78 1015.94 1015.20 1015.33 1015.62 1015.34 1015.97 1016.20 1016.21 1016.06 1015.90 1015.78 1015.28 1015.01 1014.58 1013.22 1012.57 1012.20 1011.95 1011.97 1012.07 1012.22 1012.63 1012.74 1012.94 1012.97 1012.55 1012.43 1013.52 1012.59
1020.09 1020.55 1020.96 1021.32 1021.70 1022.02 1022.33 1022.66 1022.90 1022.97 1022.95 1022.80 1022.55 1022.10 1022.07 1021.66 1021.09 1019.75 1019.22 1019.41 1019.76 1020.47 1020.28 1019.47 1018.36 1017.10 1016.09 1016.13 1015.84 1015.81 1016.01 1016.43 1015.68 1015.76 1015.52 1015.61 1015.40 1014.97 1013.86 1013.08 1012.39 1012.12 1012.08 1012.38 1012.33 1012.44 1012.77 1012.88 1013.08 1012.95 1012.91 1013.19 1013.11 1013.14
1019.21 1019.78 1020.35 1020.82 1021.26 1021.66 1022.04 1022.38 1022.63 1022.74 1022.74 1022.61 1022.50 1022.12 1021.33 1020.01 1018.93 1019.36 1019.67 1019.89 1020.05 1020.00 1019.87 1019.26 1017.65 1017.40 1017.03 1016.85 1016.87 1017.30 1016.84 1016.33 1016.17 1015.22 1014.66 1014.92 1015.07 1014.25 1013.64 1013.03 1012.78 1012.60 1012.44 1012.52 1012.95 1013.40 1013.44 1013.52 1013.26 1012.90 1012.86 1013.12 1013.31 1013.40
1018.48 1019.12 1019.80 1020.39 1020.88 1021.37 1021.81 1022.14 1022.42 1022.60 1022.58 1022.71 1022.41 1021.54 1020.30 1019.35 1019.45 1019.69 1019.80 1019.71 1019.36 1019.22 1018.34 1017.41 1016.85 1016.90 1016.73 1016.98 1017.15 1017.38 1017.30 1016.69 1016.20 1015.11 1014.77 1014.99 1015.25 1014.97 1014.35 1013.79 1013.74 1013.49 1013.25 1013.56 1013.78 1013.96 1013.98 1014.01 1013.96 1013.61 1013.16 1012.84 1012.98 1013.13
1017.92 1018.56 1019.30 1019.96 1020.50 1021.07 1021.56 1021.95 1022.27 1022.71 1022.55 1022.58 1022.39 1021.71 1020.81 1020.05 1019.88 1019.91 1019.30 1018.70 1018.28 1017.32 1016.20 1015.77 1015.46 1015.47 1016.18 1016.15 1016.75 1017.10 1016.93 1016.81 1016.02 1015.10 1015.08 1015.38 1015.88 1015.27 1014.80 1014.61 1014.48 1014.24 1014.06 1014.00 1013.95 1014.13 1014.09 1014.03 1014.17 1014.03 1013.57 1013.27 1012.86 1012.67
1017.50 1018.14 1018.91 1019.61 1020.19 1020.84 1021.32 1021.79 1022.06 1022.22 1022.18 1021.94 1021.89 1021.48 1020.66 1020.13 1019.91 1019.40 1018.55 1017.69 1016.91 1015.72 1015.14 1014.87 1015.10 1015.18 1015.49 1016.26 1016.68 1016.76 1016.94 1016.37 1015.45 1015.87 1015.72 1016.14 1016.14 1015.90 1015.65 1015.31 1015.18 1014.98 1014.73 1014.54 1014.45 1014.43 1014.44 1014.37 1014.43 1014.17 1014.05 1013.81 1013.28 1012.93
1017.27 1017.84 1018.45 1019.32 1020.04 1020.69 1021.17 1021.61 1021.95 1022.21 1022.46 1022.06 1021.29 1020.99 1020.29 1019.29 1018.46 1017.79 1017.31 1016.53 1015.73 1015.38 1014.98 1014.89 1015.25 1015.30 1015.22 1015.50 1015.77 1016.16 1015.46 1015.15 1015.64 1016.23 1016.43 1016.64 1016.15 1016.03 1016.08 1015.84 1015.50 1015.52 1015.22 1015.02 1014.92 1014.76 1014.67 1014.62 1014.59 1014.43 1014.16 1014.01 1013.74 1013.38
1017.04 1017.72 1018.60 1019.46 1020.07 1020.64 1021.11 1021.53 1021.82 1022.22 1022.06 1021.35 1020.47 1019.67 1018.66 1017.59 1016.99 1016.94 1016.51 1016.35 1015.29 1015.15 1015.08 1015.17 1015.21 1015.49 1015.64 1015.64 1015.50 1015.53 1015.28 1015.32 1016.00 1016.63 1016.83 1016.98 1016.86 1016.61 1016.32 1016.12 1015.96 1015.83 1015.70 1015.55 1015.27 1015.01 1014.72 1014.48 1014.30 1014.08 1013.88 1013.67 1013.53 1013.29
1017.36 1018.03 1018.77 1019.41 1020.11 1020.69 1021.17 1021.56 1021.91 1021.88 1021.17 1020.50 1019.65 1018.49 1017.29 1017.03 1017.29 1016.96 1016.29 1016.46 1015.54 1015.03 1014.93 1015.20 1015.52 1015.81 1015.64 1015.52 1015.50 1015.41 1015.44 1016.11 1016.65 1016.82 1016.90 1016.91 1016.97 1016.88 1016.77 1016.55 1016.21 1015.91 1015.67 1015.39 1015.10 1014.77 1014.38 1014.07 1013.93 1013.77 1013.59 1013.29 1012.96 1012.86
1017.61 1018.02 1018.79 1019.62 1020.31 1020.84 1021.24 1021.67 1021.71 1021.26 1020.37 1019.24 1018.21 1017.32 1017.00 1016.70 1016.85 1016.44 1016.02 1016.06 1015.26 1015.40 1015.86 1015.83 1016.03 1015.94 1015.54 1015.66 1015.65 1016.02 1016.56 1016.62 1016.87 1017.12 1017.18 1017.18 1017.10 1016.90 1016.69 1016.29 1015.90 1015.48 1015.13 1014.90 1014.67 1014.31 1013.96 1013.53 1013.32 1013.39 1013.31 1013.15 1012.97 1012.64
1017.73 1018.43 1019.20 1019.90 1020.51 1021.14 1021.48 1021.57 1021.10 1020.02 1019.32 1018.34 1017.92 1017.34 1016.77 1016.54 1016.54 1016.46 1016.16 1015.79 1015.48 1015.60 1015.85 1016.02 1015.93 1016.15 1016.15 1016.25 1016.73 1017.02 1017.02 1017.15 1017.19 1017.29 1017.24 1017.15 1016.91 1016.66 1016.32 1015.87 1015.31 1014.88 1014.67 1014.57 1014.29 1013.96 1013.58 1013.25 1013.28 1013.37 1013.35 1013.39 1013.34 1013.13
1018.32 1018.90 1019.53 1020.08 1020.46 1020.65 1020.79 1020.58 1020.13 1019.42 1018.28 1017.64 1017.03 1016.73 1016.64 1016.54 1016.30 1016.22 1016.26 1015.72 1015.45 1015.54 1015.91 1016.17 1016.56 1016.91 1017.33 1017.40 1017.56 1017.53 1017.53 1017.61 1017.64 1017.45 1017.25 1016.99 1016.88 1016.64 1016.11 1015.59 1015.08 1014.60 1014.38 1014.31 1014.06 1013.89 1013.78 1013.71 1013.73 1013.77 1013.86 1013.85 1013.76 1013.70
1019.16 1019.66 1020.07 1020.37 1020.54 1020.48 1019.91 1019.26 1018.45 1018.57 1017.90 1017.51 1016.97 1016.96 1016.96 1016.90 1016.60 1016.78 1016.62 1016.58 1016.42 1016.48 1016.89 1017.26 1017.71 1017.81 1017.77 1017.85 1017.79 1017.82 1017.73 1017.65 1017.57 1017.44 1017.18 1017.00 1016.68 1016.37 1015.84 1015.50 1015.31 1014.95 1014.83 1014.73 1014.52 1014.37 1014.27 1014.25 1014.27 1014.32 1014.38 1014.33 1014.38 1014.29
1019.63 1020.27 1020.44 1020.70 1020.57 1020.27 1019.65 1018.65 1018.24 1017.87 1017.59 1017.32 1017.14 1017.15 1017.31 1017.06 1017.38 1017.73 1017.99 1017.56 1017.51 1017.79 1018.00 1018.13 1018.22 1018.09 1017.83 1017.80 1017.74 1017.72 1017.68 1017.56 1017.51 1017.40 1017.24 1016.96 1016.71 1016.41 1016.21 1015.98 1015.63 1015.50 1015.35 1015.23 1015.12 1014.99 1014.93 1014.90 1014.79 1014.87 1014.94 1015.10 1015.16 1015.18
1019.48 1019.96 1020.34 1020.54 1020.19 1019.27 1018.94 1017.94 1018.16 1017.75 1017.85 1017.53 1017.37 1017.44 1017.62 1018.28 1018.84 1019.09 1018.99 1018.77 1018.67 1018.53 1018.40 1018.50 1018.41 1018.27 1018.08 1017.88 1017.81 1017.71 1017.53 1017.33 1017.18 1017.03 1016.92 1016.78 1016.76 1016.64 1016.50 1016.30 1016.14 1016.05 1015.93 1015.80 1015.73 1015.66 1015.64 1015.61 1015.55 1015.57 1015.64 1015.89 1015.99 1015.99
1019.45 1019.60 1019.54 1019.16 1019.24 1018.48 1017.93 1017.27 1017.76 1017.42 1017.58 1017.53 1017.21 1017.66 1018.54 1019.09 1019.54 1019.43 1019.41 1019.11 1018.90 1018.51 1018.36 1018.28 1018.10 1017.92 1017.89 1017.72 1017.58 1017.48 1017.33 1017.21 1017.11 1017.03 1016.89 1016.80 1016.73 1016.69 1016.66 1016.68 1016.56 1016.53 1016.48 1016.50 1016.38 1016.33 1016.36 1016.27 1016.33 1016.39 1016.48 1016.66 1016.83 1016.84
1018.68 1018.96 1018.81 1018.58 1018.39 1018.11 1017.22 1017.17 1017.19 1017.79 1017.90 1018.17 1018.37 1018.67 1019.19 1019.57 1019.68 1019.71 1019.57 1019.23 1018.62 1018.24 1018.13 1017.96 1017.86 1017.76 1017.63 1017.50 1017.50 1017.44 1017.37 1017.17 1017.06 1016.91 1016.68 1016.69 1016.87 1016.98 1016.88 1016.91 1017.03 1017.00 1016.96 1016.95 1016.89 1016.90 1016.93 1016.94 1016.92 1016.89 1016.92 1016.99 1017.14 1017.28
1019.36 1019.25 1019.19 1018.82 1018.34 1018.05 1017.70 1017.87 1018.32 1018.62 1018.84 1018.79 1018.83 1019.05 1019.42 1019.64 1019.70 1019.55 1019.24 1018.72 1018.28 1018.02 1017.82 1017.61 1017.54 1017.50 1017.48 1017.48 1017.47 1017.37 1017.32 1017.22 1017.12 1016.96 1016.80 1016.75 1016.97 1017.12 1017.21 1017.35 1017.38 1017.35 1017.27 1017.24 1017.42 1017.31 1017.33 1017.31 1017.31 1017.31 1017.35 1017.39 1017.52 1017.70
1019.48 1019.26 1019.27 1018.88 1018.73 1018.66 1018.57 1018.68 1018.86 1018.92 1018.92 1018.85 1018.86 1018.95 1019.18 1019.29 1019.24 1019.00 1018.56 1018.20 1017.96 1017.69 1017.44 1017.38 1017.35 1017.42 1017.30 1017.26 1017.31 1017.30 1017.24 1017.14 1017.03 1016.88 1016.97 1017.00 1017.08 1017.16 1017.52 1017.73 1017.79 1017.70 1017.27 1017.30 1017.36 1017.38 1017.42 1017.47 1017.51 1017.52 1017.56 1017.55 1017.69 1017.97
1019.86 1019.49 1019.29 1019.01 1019.01 1018.99 1019.16 1019.12 1019.06 1018.92 1018.60 1018.38 1018.16 1018.33 1018.56 1018.51 1018.35 1018.14 1017.86 1017.71 1017.53 1017.30 1017.07 1017.00 1017.12 1017.17 1017.02 1017.03 1017.15 1017.16 1017.24 1017.13 1017.04 1016.83 1016.91 1016.91 1016.96 1017.02 1017.12 1017.36 1017.40 1017.29 1016.90 1016.74 1016.84 1016.86 1016.76 1016.54 1016.66 1016.87 1017.05 1016.99 1017.15 1017.55
1020.00 1019.82 1019.68 1019.34 1019.23 1019.14 1018.90 1018.69 1018.41 1018.08 1017.68 1017.39 1017.43 1017.33 1017.24 1017.46 1017.45 1017.48 1017.49 1017.42 1017.25 1017.07 1016.89 1016.69 1017.13 1017.01 1017.05 1017.22 1017.14 1017.08 1017.02 1017.03 1017.04 1017.04 1016.98 1016.75 1016.64 1016.63 1016.72 1016.74 1016.65 1016.43 1016.48 1016.41 1016.44 1016.29 1016.12 1016.14 1016.39 1016.67 1016.85 1016.95 1017.21 1017.40
1019.75 1019.49 1019.43 1019.00 1018.69 1018.48 1018.11 1017.60 1016.85 1016.31 1015.95 1016.17 1016.10 1016.46 1016.67 1016.69 1016.89 1017.13 1017.21 1016.99 1017.14 1017.27 1017.41 1017.03 1016.60 1016.69 1016.78 1016.78 1016.66 1016.49 1016.42 1016.52 1017.02 1016.89 1016.94 1016.92 1016.87 1016.99 1016.61 1016.53 1016.64 1016.70 1016.56 1016.50 1016.48 1016.36 1016.29 1016.36 1016.60 1016.73 1016.88 1017.10 1017.39 1017.57
1018.57 1018.66 1018.52 1018.02 1017.66 1017.00 1016.28 1016.00 1015.47 1014.98 1014.81 1015.00 1015.54 1016.12 1016.35 1016.44 1016.61 1016.82 1017.04 1017.14 1017.20 1017.09 1016.95 1016.91 1016.75 1016.70 1016.61 1016.61 1016.28 1016.00 1015.76 1015.56 1015.59 1016.11 1016.50 1016.56 1016.57 1016.25 1016.25 1016.37 1016.41 1016.38 1016.35 1016.38 1016.55 1016.63 1016.55 1016.56 1016.60 1016.75 1017.08 1017.24 1017.46 1017.76
1017.45 1017.72 1017.39 1016.69 1015.95 1015.31 1015.05 1015.08 1015.12 1015.01 1014.99 1015.20 1015.38 1015.69 1015.94 1016.15 1016.39 1016.49 1016.71 1016.66 1016.75 1016.78 1016.80 1016.66 1016.27 1015.97 1015.96 1015.97 1015.88 1016.29 1016.29 1015.92 1015.40 1015.37 1015.58 1015.93 1016.14 1016.27 1016.14 1016.02 1016.11 1016.27 1016.27 1016.20 1016.35 1016.48 1016.65 1016.68 1016.65 1016.91 1017.23 1017.49 1017.69 1017.89
1016.42 1016.22 1015.74 1015.43 1015.14 1014.81 1014.77 1015.02 1015.27 1015.42 1015.57 1015.63 1015.80 1015.84 1015.99 1016.02 1016.16 1015.83 1015.32 1015.64 1016.05 1016.03 1015.65 1015.64 1015.64 1015.49 1015.28 1015.24 1015.18 1015.55 1015.79 1016.10 1016.01 1016.09 1016.13 1016.15 1016.18 1016.21 1016.28 1016.28 1016.21 1016.24 1016.35 1016.35 1016.41 1016.74 1016.82 1016.94 1017.13 1017.33 1017.56 1017.71 1017.85 1018.03
1015.58 1015.47 1015.18 1014.90 1014.72 1014.41 1014.27 1014.31 1014.55 1014.82 1014.89 1014.98 1015.03 1015.03 1015.23 1015.25 1015.00 1014.56 1013.97 1014.07 1014.33 1014.43 1014.75 1014.79 1014.68 1014.89 1014.85 1015.09 1015.57 1015.98 1016.05 1016.15 1016.29 1016.37 1016.43 1016.58 1016.61 1016.60 1016.64 1016.71 1016.68 1016.70 1016.83 1016.97 1017.00 1017.05 1017.17 1017.27 1017.43 1017.51 1017.62 1017.74 1017.89 1018.03
Wind_Speed
11 10 9 9 10 8 7 8 10 10 10 13 14 16 17 18 20 9 5 3 3 2 7 4 1 3 6 4 3 7 5 7 6 5 3 3 2 4 0 4 4 7 6 5 3 1 8 2 4 5 8 6 22 14
12 11 10 10 10 8 7 6 8 7 9 11 13 14 15 16 17 15 3 4 4 3 7 4 11 13 10 11 3 5 4 1 1 4 2 2 2 1 4 3 6 3 5 6 10 7 2 4 5 4 2 9 8 10
12 12 11 11 11 10 8 7 7 8 9 11 12 13 14 15 15 11 3 4 4 2 6 3 6 6 5 8 5 4 3 1 3 3 2 2 2 2 3 2 3 5 4 3 4 7 5 6 5 5 5 4 5 6
13 12 13 13 12 11 9 8 8 8 9 11 12 13 13 14 14 12 2 2 0 3 1 8 4 5 8 3 4 5 5 3 2 3 1 1 1 1 3 5 3 5 5 4 2 3 2 9 6 8 6 7 5 4
13 12 13 12 11 11 10 8 8 9 9 10 11 12 13 14 15 9 4 4 3 3 3 6 10 7 5 3 2 4 4 3 2 3 1 3 3 2 3 2 2 2 1 3 3 6 2 2 4 6 5 11 4 7
11 11 11 12 11 11 11 9 9 9 10 10 11 12 13 13 15 3 3 2 1 1 1 4 5 4 2 5 4 1 3 3 3 3 3 3 3 4 1 0 5 4 2 4 3 4 5 4 1 4 3 6 6 10
11 11 11 11 12 11 10 9 9 9 8 10 11 12 12 11 2 2 4 4 3 4 2 5 6 5 5 4 1 2 2 2 4 2 2 2 3 4 2 4 7 6 7 5 4 5 5 3 2 2 5 3 4 4
14 13 12 13 12 11 11 9 8 8 8 10 11 13 14 15 9 6 5 14 5 1 1 2 6 4 6 1 1 2 1 2 2 4 2 2 2 2 3 6 3 6 1 4 7 8 4 7 5 1 4 5 4 3
17 16 14 14 13 11 11 9 8 8 8 10 13 17 5 1 2 4 4 8 1 4 1 1 1 4 5 3 2 5 2 1 2 3 3 5 2 4 7 7 4 7 7 6 6 8 8 8 6 4 4 4 5 5
19 18 16 16 15 12 11 9 8 7 7 9 4 1 3 5 5 6 3 1 2 2 1 4 2 2 3 2 3 4 2 2 1 6 2 4 5 5 7 4 3 4 6 6 8 6 6 4 5 4 1 3 5 4
18 19 18 17 16 13 11 9 7 4 4 0 2 2 3 3 3 1 2 2 2 3 4 5 6 3 2 3 3 3 2 3 1 6 6 2 1 2 4 10 6 7 9 9 7 6 7 7 6 6 8 4 6 7
15 18 19 17 16 14 11 9 7 3 2 4 4 4 3 1 0 1 3 3 4 5 4 5 6 5 2 4 2 1 2 3 5 3 2 1 3 1 6 9 9 9 11 11 10 8 7 7 6 6 6 7 5 6
15 18 20 17 16 14 11 9 9 6 6 2 1 2 3 3 1 4 5 4 3 3 1 1 4 2 2 3 3 3 4 6 2 5 2 1 2 3 3 4 6 6 7 8 8 8 8 8 6 5 6 6 7 6
12 17 21 19 16 13 11 9 7 2 0 1 3 3 5 4 5 5 4 4 5 0 1 4 2 3 1 3 2 2 5 1 3 3 0 2 3 4 3 3 5 5 7 7 7 6 6 5 5 5 3 2 4 6
12 20 20 17 15 13 11 9 6 1 2 3 2 5 7 6 2 2 2 3 1 1 1 3 3 3 1 1 1 2 3 1 3 1 1 1 3 4 6 6 6 6 5 5 5 6 7 5 5 6 6 3 1 4
18 19 7 17 15 14 11 6 2 2 3 3 5 4 3 4 3 2 6 4 3 1 2 2 2 3 2 2 1 4 1 2 2 1 1 2 4 5 6 6 6 6 6 6 6 7 8 7 6 7 6 5 6 6
12 3 18 17 15 13 11 1 2 4 4 4 4 3 3 2 3 4 1 2 2 3 1 2 2 5 2 1 1 4 1 1 3 2 1 2 4 6 6 6 7 7 7 6 6 8 8 7 5 3 5 1 2 6
5 14 20 18 10 6 2 3 3 4 6 5 2 5 3 2 2 2 2 3 2 2 2 1 2 2 2 2 3 1 3 2 2 1 2 3 5 6 6 9 11 9 6 6 6 6 5 5 2 2 3 3 3 4
10 13 19 18 4 3 4 4 4 3 5 3 4 1 2 1 2 1 2 3 1 2 3 3 1 1 3 2 2 1 1 1 2 3 3 3 5 5 7 7 6 6 1 1 3 3 3 4 3 3 2 2 4 3
14 13 13 9 2 2 3 4 3 2 3 3 2 2 0 1 1 2 4 5 3 2 3 3 2 0 2 1 0 1 1 1 1 3 3 3 3 5 6 4 4 5 5 5 5 6 4 4 4 4 4 4 4 4
7 4 6 4 2 3 3 3 3 3 2 2 2 2 2 2 4 4 4 4 4 1 2 2 2 1 2 2 1 1 1 1 1 1 2 3 3 3 3 3 3 4 4 4 4 5 7 5 4 5 6 6 6 6
1 14 3 3 3 4 3 2 1 3 1 1 2 3 1 3 3 3 4 4 2 0 2 1 1 1 3 1 1 2 1 2 3 3 3 3 1 2 3 3 3 3 3 3 3 4 4 3 4 6 6 6 6 6
8 4 3 5 4 1 6 5 4 3 2 2 2 4 3 2 2 4 1 1 3 2 1 2 2 2 3 3 1 1 2 3 2 2 1 1 1 1 1 3 2 2 3 3 3 4 4 5 6 5 5 5 4 5
2 2 2 3 3 4 3 1 2 4 4 4 3 2 2 2 3 1 2 2 3 2 1 2 1 1 0 0 1 1 2 2 2 2 2 3 4 2 1 3 3 3 3 3 3 4 4 4 4 4 4 5 5 5
2 4 3 5 3 3 2 3 3 4 2 2 2 2 1 0 1 1 2 3 2 2 3 1 2 2 1 1 1 1 1 1 2 2 3 3 3 3 4 4 4 2 2 5 3 4 3 3 3 3 2 2 5 5
1 2 3 3 4 3 3 2 2 1 0 0 2 2 2 1 2 3 2 1 2 2 2 3 3 2 0 2 2 1 1 2 2 2 1 3 2 4 4 3 2 3 3 2 2 4 5 5 5 6 5 6 6 3
1 2 2 2 2 3 2 2 1 0 2 3 3 4 3 3 3 3 1 2 2 1 1 3 3 3 4 2 2 2 1 1 3 2 1 1 2 3 4 5 6 5 4 6 5 4 5 5 6 5 4 3 5 8
3 0 2 1 0 2 1 2 3 4 3 3 1 3 2 3 1 2 1 2 2 0 1 2 3 1 2 3 3 3 4 3 4 3 4 3 4 3 4 3 2 8 4 3 4 4 3 2 4 6 5 6 7 7
2 2 2 3 3 3 3 3 3 4 4 4 2 2 2 1 3 3 1 2 1 2 1 3 4 2 4 4 4 4 5 4 4 4 5 3 1 2 4 4 4 2 3 5 5 6 8 7 7 6 7 6 5 5
3 3 3 2 3 4 4 6 2 2 2 3 4 3 2 1 2 3 3 2 3 4 5 4 4 4 5 4 6 4 4 2 6 6 6 6 6 4 4 4 4 4 3 4 3 1 2 2 2 3 4 4 3 3
5 5 4 5 3 4 3 3 3 3 3 4 3 6 3 2 2 3 4 4 4 4 4 6 7 7 6 5 4 5 3 5 7 10 8 5 5 4 2 3 3 3 3 3 4 2 2 2 0 4 5 6 7 6
4 5 1 3 2 2 4 4 5 3 2 2 2 2 2 2 2 3 4 7 6 6 9 6 3 3 2 4 7 5 7 3 5 6 8 5 5 6 5 4 5 5 6 5 5 4 7 7 6 6 6 7 6 7
2 2 3 3 3 3 1 3 4 4 3 4 4 6 5 5 5 5 2 7 8 9 5 4 3 5 8 9 8 5 5 5 7 8 10 10 9 8 5 4 5 6 7 6 5 5 7 9 6 6 6 6 5 5
Wind_Direction
216 229 241 249 258 267 293 308 322 327 335 338 343 348 350 354 355 3 275 293 71 278 278 255 25 16 336 17 40 291 26 358 19 58 109 234 157 256 318 237 202 190 164 215 86 131 297 301 51 194 213 163 177 204
217 225 234 242 247 252 271 288 310 319 325 330 335 341 346 351 355 0 310 325 323 176 244 244 259 243 201 230 142 344 153 304 220 74 19 331 320 329 160 278 333 316 189 199 169 208 314 355 72 52 143 164 201 215
219 225 233 235 240 239 250 267 285 300 314 327 330 332 339 342 347 360 284 294 355 343 304 357 257 285 155 211 173 111 316 225 20 175 176 255 327 48 30 268 317 307 5 33 104 357 54 65 64 67 72 153 200 190
222 227 233 235 229 224 236 253 267 288 302 308 321 324 329 332 333 339 299 276 139 269 276 284 340 315 308 169 172 165 171 32 106 67 130 146 232 81 243 225 187 232 5 1 52 271 235 31 25 340 33 72 111 21
228 229 234 230 219 216 229 238 258 278 294 303 312 318 320 326 325 311 219 239 190 126 253 282 310 262 190 124 53 46 96 92 76 16 55 238 244 35 297 37 336 343 293 96 207 266 93 275 291 332 28 42 81 115
221 220 218 218 218 210 224 233 251 269 284 297 305 311 314 322 335 339 21 299 139 83 55 315 282 281 137 152 159 161 141 120 109 146 229 274 270 92 279 275 269 257 104 145 200 212 130 154 5 335 64 71 34 116
218 217 215 216 201 210 222 230 245 267 279 292 300 303 304 308 340 205 220 247 330 349 67 314 308 282 176 127 25 70 55 154 133 219 220 204 302 69 258 195 236 235 140 129 93 94 62 226 154 344 353 29 32 44
213 212 216 209 200 212 221 222 241 260 276 292 299 300 299 292 284 282 248 244 203 126 54 265 271 9 14 316 293 164 123 57 289 206 346 176 320 135 257 247 245 228 110 66 102 96 145 104 126 237 340 348 272 9
211 207 206 200 200 209 215 217 239 257 275 295 303 300 315 151 220 238 137 117 90 127 209 281 232 250 352 339 37 7 78 146 255 182 231 114 243 217 226 234 251 201 174 151 95 84 84 92 104 85 82 63 55 90
207 202 200 197 199 204 203 211 237 258 283 302 307 359 294 227 140 90 21 81 5 255 215 229 238 268 86 348 23 17 342 238 306 238 110 151 238 267 322 310 294 87 86 97 80 40 29 35 9 349 36 162 159 185
204 197 193 196 196 195 198 208 225 272 317 21 260 250 294 307 48 4 250 168 205 240 210 228 182 186 210 124 170 153 271 311 324 259 143 201 267 22 332 70 54 64 70 78 104 122 83 70 34 342 316 259 207 191
200 195 186 189 192 189 192 199 195 139 210 218 243 288 301 14 19 248 224 252 196 235 214 175 203 172 143 57 83 288 121 346 252 294 132 189 222 334 51 49 41 42 44 39 30 30 34 47 35 17 7 352 297 217
195 190 178 181 182 182 187 187 190 236 338 314 207 262 120 252 162 206 206 234 236 264 225 38 49 138 90 156 130 130 176 226 349 4 225 100 298 16 49 58 32 13 30 32 19 13 7 7 13 24 11 359 345 324
174 180 170 173 171 175 172 177 177 225 124 238 211 301 176 242 227 203 231 230 244 298 121 99 65 118 295 44 132 205 232 111 178 157 193 300 349 13 38 25 39 3 6 4 349 339 339 347 336 342 16 48 18 335
172 161 158 163 164 164 163 160 167 157 252 253 228 232 215 228 257 198 270 300 241 348 101 44 26 101 289 64 218 25 295 49 52 151 302 343 22 13 356 345 344 338 329 323 317 309 296 276 285 285 285 286 248 257
145 135 145 154 158 153 146 146 153 241 254 236 239 277 297 57 4 141 256 281 298 325 37 51 76 56 282 183 269 233 338 90 199 181 207 9 345 323 310 310 299 287 279 275 273 274 277 270 261 259 278 252 243 235
139 119 150 146 146 146 156 147 180 230 249 253 265 271 266 144 254 281 72 240 296 77 132 92 122 223 295 257 101 35 62 23 111 31 4 282 289 301 298 290 282 275 273 272 277 272 271 271 259 286 289 289 47 332
70 132 139 138 128 126 166 208 255 230 239 247 222 278 277 179 157 287 290 288 56 65 65 185 166 23 266 74 73 42 63 82 97 193 243 288 313 314 305 298 294 283 267 273 273 266 259 246 200 200 15 58 60 44
130 139 146 151 130 181 176 228 192 251 244 235 273 301 126 287 288 252 313 337 45 123 79 28 21 41 68 54 107 53 28 90 272 283 283 310 310 297 300 307 328 359 309 310 38 42 52 60 63 41 63 134 103 74
115 134 156 179 12 283 252 248 160 233 285 262 349 2 14 199 262 75 42 21 25 48 31 52 69 335 130 171 155 162 185 271 290 308 304 318 324 335 334 355 25 19 44 37 45 43 45 54 44 52 58 55 73 65
109 151 145 149 259 204 270 273 230 215 289 337 310 58 307 359 33 29 5 342 43 35 51 78 99 59 64 111 99 22 291 20 253 262 289 306 336 347 1 2 25 31 38 34 32 46 47 40 36 56 68 65 62 58
122 157 141 197 261 203 243 206 214 273 143 323 6 197 132 53 35 359 310 17 319 24 84 77 277 316 328 310 311 291 337 321 295 275 262 264 349 33 22 25 38 48 51 41 36 52 55 38 67 74 76 73 70 73
148 158 234 198 238 103 245 145 191 219 138 234 354 72 42 68 24 323 354 287 268 257 264 256 263 270 235 279 272 65 22 347 4 31 359 334 231 200 63 54 73 74 77 39 29 47 65 56 58 68 68 66 71 73
203 238 265 291 165 252 300 331 46 44 14 44 21 66 60 345 352 27 272 267 254 270 273 260 233 291 234 26 59 27 346 336 336 338 350 78 86 56 70 93 78 68 68 78 65 70 66 68 68 85 97 97 89 96
69 297 98 303 275 322 312 49 46 49 46 5 313 70 159 87 324 269 245 263 270 281 281 232 202 212 190 123 132 239 301 83 34 26 7 86 105 69 52 48 53 72 90 96 93 93 70 70 64 58 33 80 133 130
65 270 128 335 320 52 8 78 94 93 5 76 237 159 156 211 235 248 244 249 266 264 229 194 174 130 171 195 160 145 199 235 307 100 58 80 85 112 111 121 136 287 260 230 209 210 207 201 204 208 214 206 211 173
281 291 335 5 52 46 71 76 49 322 249 218 208 180 200 226 242 228 256 242 255 290 237 168 153 167 196 220 291 272 238 199 207 221 343 209 193 190 163 168 208 222 215 228 246 258 282 177 178 174 174 172 178 170
225 315 175 10 132 186 217 194 213 218 224 211 186 217 216 195 236 169 167 216 188 192 318 324 103 192 251 256 265 291 298 255 258 278 297 288 254 229 182 152 136 107 114 112 111 69 86 134 132 109 107 107 111 131
209 197 197 217 216 198 227 245 230 217 195 176 185 138 151 202 149 121 204 211 173 70 54 288 302 271 268 270 269 249 251 198 195 192 181 195 122 259 204 168 172 179 146 114 88 98 87 93 108 122 127 129 144 138
190 157 209 211 221 229 236 187 260 7 74 116 105 88 67 10 188 152 154 165 203 223 236 240 258 220 234 238 271 327 344 234 178 170 180 190 207 212 187 197 198 199 189 135 126 96 24 66 75 73 87 73 84 110
144 175 236 222 191 206 147 137 80 79 73 71 72 109 114 166 47 190 201 225 227 247 250 259 261 245 239 251 213 139 43 341 50 78 95 96 95 113 137 137 143 143 159 173 180 164 91 357 262 124 120 115 117 114
195 215 235 50 49 162 140 156 164 159 168 163 172 173 171 188 242 239 218 187 215 241 254 261 285 305 136 134 89 81 105 122 86 80 69 71 71 69 62 46 51 49 40 62 103 105 95 86 88 93 86 91 98 119
350 344 318 338 350 342 281 153 154 179 183 193 222 193 193 190 216 238 215 183 199 218 213 247 156 153 116 113 121 113 99 104 108 102 100 96 93 87 79 69 65 63 53 54 43 84 87 88 88 80 86 89 85 77